Time,TemperatureF,DewpointF,PressureIn,WindDirection,WindDirectionDegrees,WindSpeedMPH,WindSpeedGustMPH,Humidity,HourlyPrecipIn,Conditions,Clouds,dailyrainin,SolarRadiationWatts/m^2,SoftwareType,DateUTC
2013-01-26 00:00:00,18.1,7.0,30.06,NW,324,7.0,11.0,61,0.00,,,0.00,0,WeatherHawk,2013-01-26 05:00:00,
2013-01-26 00:01:00,18.1,7.0,30.06,NW,324,7.0,11.0,61,0.00,,,0.00,0,WeatherHawk,2013-01-26 05:01:00,
2013-01-26 00:02:00,18.0,7.5,30.06,NNW,333,8.0,11.0,63,0.00,,,0.00,0,WeatherHawk,2013-01-26 05:02:00,
2013-01-26 00:05:00,17.8,7.7,30.06,NW,325,6.0,11.0,64,0.00,,,0.00,0,WeatherHawk,2013-01-26 05:05:00,
2013-01-26 00:10:00,17.6,8.2,30.06,North,358,5.0,10.0,66,0.00,,,0.00,0,WeatherHawk,2013-01-26 05:10:00,
2013-01-26 00:15:00,17.4,8.4,30.06,NW,322,7.0,10.0,67,0.00,,,0.00,0,WeatherHawk,2013-01-26 05:15:00,
2013-01-26 00:20:00,17.4,8.7,30.05,NNE,33,3.0,9.0,68,0.00,,,0.00,0,WeatherHawk,2013-01-26 05:20:00,
2013-01-26 00:25:00,17.2,9.2,30.05,NNE,17,3.0,9.0,70,0.00,,,0.00,0,WeatherHawk,2013-01-26 05:25:00,
2013-01-26 00:30:00,17.2,9.5,30.05,North,4,6.0,10.0,71,0.00,,,0.00,0,WeatherHawk,2013-01-26 05:30:00,
2013-01-26 00:35:00,17.1,9.6,30.05,NNW,346,5.0,-999.0,72,0.00,,,0.00,0,WeatherHawk,2013-01-26 05:35:00,
2013-01-26 00:40:00,17.1,9.6,30.05,North,6,4.0,9.0,72,0.00,,,0.00,0,WeatherHawk,2013-01-26 05:40:00,
2013-01-26 00:45:00,17.1,9.9,30.05,NW,309,4.0,9.0,73,0.00,,,0.00,0,WeatherHawk,2013-01-26 05:45:00,
2013-01-26 00:50:00,17.1,9.6,30.05,NNW,345,6.0,-999.0,72,0.00,,,0.00,0,WeatherHawk,2013-01-26 05:50:00,
2013-01-26 00:55:00,17.1,9.6,30.05,NNW,328,6.0,8.0,72,0.00,,,0.00,0,WeatherHawk,2013-01-26 05:55:00,
2013-01-26 01:00:00,17.1,9.6,30.05,NW,326,6.0,8.0,72,0.00,,,0.00,0,WeatherHawk,2013-01-26 06:00:00,
2013-01-26 01:05:00,17.1,9.3,30.04,NW,314,6.0,8.0,71,0.00,,,0.00,0,WeatherHawk,2013-01-26 06:05:00,
2013-01-26 01:10:00,17.1,9.0,30.04,NW,324,5.0,7.0,70,0.00,,,0.00,0,WeatherHawk,2013-01-26 06:10:00,
2013-01-26 01:15:00,17.1,8.7,30.04,NW,316,5.0,8.0,69,0.00,,,0.00,0,WeatherHawk,2013-01-26 06:15:00,
2013-01-26 01:20:00,17.1,8.7,30.04,NNW,327,3.0,8.0,69,0.00,,,0.00,0,WeatherHawk,2013-01-26 06:20:00,
2013-01-26 01:25:00,17.1,8.7,30.04,NNW,345,4.0,9.0,69,0.00,,,0.00,0,WeatherHawk,2013-01-26 06:25:00,
2013-01-26 01:30:00,17.1,8.0,30.04,NW,325,7.0,10.0,67,0.00,,,0.00,0,WeatherHawk,2013-01-26 06:30:00,
2013-01-26 01:35:00,16.9,7.8,30.04,NW,313,7.0,10.0,67,0.00,,,0.00,0,WeatherHawk,2013-01-26 06:35:00,
2013-01-26 01:40:00,16.9,8.2,30.04,NNW,335,6.0,11.0,68,0.00,,,0.00,0,WeatherHawk,2013-01-26 06:40:00,
2013-01-26 01:45:00,16.9,8.2,30.03,NNW,336,7.0,11.0,68,0.00,,,0.00,0,WeatherHawk,2013-01-26 06:45:00,
2013-01-26 01:50:00,16.7,7.7,30.03,NNW,330,7.0,11.0,67,0.00,,,0.00,0,WeatherHawk,2013-01-26 06:50:00,
2013-01-26 01:55:00,16.5,7.8,30.03,NNW,329,7.0,11.0,68,0.00,,,0.00,0,WeatherHawk,2013-01-26 06:55:00,
2013-01-26 02:00:00,16.5,8.2,30.03,NNW,331,7.0,-999.0,69,0.00,,,0.00,0,WeatherHawk,2013-01-26 07:00:00,
2013-01-26 02:05:00,16.3,8.3,30.03,NW,308,4.0,-999.0,70,0.00,,,0.00,0,WeatherHawk,2013-01-26 07:05:00,
2013-01-26 02:10:00,16.3,8.6,30.03,NNE,21,5.0,9.0,71,0.00,,,0.00,0,WeatherHawk,2013-01-26 07:10:00,
2013-01-26 02:15:00,16.3,8.6,30.03,NNW,327,3.0,9.0,71,0.00,,,0.00,0,WeatherHawk,2013-01-26 07:15:00,
2013-01-26 02:20:00,16.2,8.7,30.02,NW,313,3.0,9.0,72,0.00,,,0.00,0,WeatherHawk,2013-01-26 07:20:00,
2013-01-26 02:25:00,16.0,8.6,30.02,NNW,338,6.0,7.0,72,0.00,,,0.00,0,WeatherHawk,2013-01-26 07:25:00,
2013-01-26 02:30:00,16.0,8.6,30.02,NW,326,4.0,10.0,72,0.00,,,0.00,0,WeatherHawk,2013-01-26 07:30:00,
2013-01-26 02:35:00,15.8,8.4,30.02,NNW,346,3.0,10.0,72,0.00,,,0.00,0,WeatherHawk,2013-01-26 07:35:00,
2013-01-26 02:40:00,15.8,8.4,30.02,NNW,340,4.0,9.0,72,0.00,,,0.00,0,WeatherHawk,2013-01-26 07:40:00,
2013-01-26 02:45:00,15.6,8.2,30.01,NW,311,5.0,9.0,72,0.00,,,0.00,0,WeatherHawk,2013-01-26 07:45:00,
2013-01-26 02:50:00,15.6,8.5,30.01,NNW,332,5.0,7.0,73,0.00,,,0.00,0,WeatherHawk,2013-01-26 07:50:00,
2013-01-26 02:55:00,15.4,8.4,30.01,NNW,339,6.0,8.0,73,0.00,,,0.00,0,WeatherHawk,2013-01-26 07:55:00,
2013-01-26 03:00:00,15.4,8.4,30.01,NNW,336,5.0,8.0,73,0.00,,,0.00,0,WeatherHawk,2013-01-26 08:00:00,
2013-01-26 03:05:00,15.4,8.4,30.01,NW,323,8.0,8.0,73,0.00,,,0.00,0,WeatherHawk,2013-01-26 08:05:00,
2013-01-26 03:10:00,15.4,8.4,30.01,NW,324,4.0,8.0,73,0.00,,,0.00,0,WeatherHawk,2013-01-26 08:10:00,
2013-01-26 03:15:00,15.4,8.4,30.00,WNW,302,6.0,8.0,73,0.00,,,0.00,0,WeatherHawk,2013-01-26 08:15:00,
2013-01-26 03:20:00,15.3,8.2,30.00,NNW,333,5.0,8.0,73,0.00,,,0.00,0,WeatherHawk,2013-01-26 08:20:00,
2013-01-26 03:25:00,15.3,8.2,30.00,NW,325,6.0,-999.0,73,0.00,,,0.00,0,WeatherHawk,2013-01-26 08:25:00,
2013-01-26 03:30:00,15.1,8.0,30.00,North,353,5.0,12.0,73,0.00,,,0.00,0,WeatherHawk,2013-01-26 08:30:00,
2013-01-26 03:35:00,15.1,8.0,30.00,NNW,338,4.0,12.0,73,0.00,,,0.00,0,WeatherHawk,2013-01-26 08:35:00,
2013-01-26 03:40:00,14.9,7.8,30.00,NW,319,4.0,8.0,73,0.00,,,0.00,0,WeatherHawk,2013-01-26 08:40:00,
2013-01-26 03:45:00,14.9,7.8,30.00,NW,319,5.0,7.0,73,0.00,,,0.00,0,WeatherHawk,2013-01-26 08:45:00,
2013-01-26 03:50:00,14.9,8.1,30.00,NW,315,8.0,-999.0,74,0.00,,,0.00,0,WeatherHawk,2013-01-26 08:50:00,
2013-01-26 03:55:00,14.7,8.0,30.00,NNW,327,7.0,10.0,74,0.00,,,0.00,0,WeatherHawk,2013-01-26 08:55:00,
2013-01-26 04:00:00,14.7,8.0,30.00,WNW,297,7.0,10.0,74,0.00,,,0.00,0,WeatherHawk,2013-01-26 09:00:00,
2013-01-26 04:05:00,14.7,8.0,30.00,NW,310,6.0,10.0,74,0.00,,,0.00,0,WeatherHawk,2013-01-26 09:05:00,
2013-01-26 04:10:00,14.5,7.8,30.00,NNW,327,4.0,10.0,74,0.00,,,0.00,0,WeatherHawk,2013-01-26 09:10:00,
2013-01-26 04:15:00,14.5,7.8,30.00,NW,314,4.0,10.0,74,0.00,,,0.00,0,WeatherHawk,2013-01-26 09:15:00,
2013-01-26 04:20:00,14.4,7.9,30.00,NW,305,6.0,8.0,75,0.00,,,0.00,0,WeatherHawk,2013-01-26 09:20:00,
2013-01-26 04:25:00,14.4,7.9,30.00,WNW,298,3.0,9.0,75,0.00,,,0.00,0,WeatherHawk,2013-01-26 09:25:00,
2013-01-26 04:30:00,14.2,7.7,30.00,NW,314,4.0,9.0,75,0.00,,,0.00,0,WeatherHawk,2013-01-26 09:30:00,
2013-01-26 04:35:00,14.2,8.0,30.00,NW,321,6.0,9.0,76,0.00,,,0.00,0,WeatherHawk,2013-01-26 09:35:00,
2013-01-26 04:40:00,14.0,7.9,30.00,NW,323,4.0,9.0,76,0.00,,,0.00,0,WeatherHawk,2013-01-26 09:40:00,
2013-01-26 04:45:00,14.0,7.9,30.00,WNW,292,6.0,8.0,76,0.00,,,0.00,0,WeatherHawk,2013-01-26 09:45:00,
2013-01-26 04:50:00,13.8,7.7,30.00,NW,306,5.0,9.0,76,0.00,,,0.00,0,WeatherHawk,2013-01-26 09:50:00,
2013-01-26 04:55:00,13.8,8.0,30.00,NW,308,5.0,9.0,77,0.00,,,0.00,0,WeatherHawk,2013-01-26 09:55:00,
2013-01-26 05:00:00,13.8,8.0,29.99,NW,321,6.0,9.0,77,0.00,,,0.00,0,WeatherHawk,2013-01-26 10:00:00,
2013-01-26 05:05:00,13.8,8.0,29.99,NW,323,8.0,-999.0,77,0.00,,,0.00,0,WeatherHawk,2013-01-26 10:05:00,
2013-01-26 05:10:00,13.8,8.0,30.00,WNW,282,9.0,10.0,77,0.00,,,0.00,0,WeatherHawk,2013-01-26 10:10:00,
2013-01-26 05:15:00,13.6,7.8,30.00,WNW,302,11.0,11.0,77,0.00,,,0.00,0,WeatherHawk,2013-01-26 10:15:00,
2013-01-26 05:20:00,13.6,7.8,30.00,WNW,293,8.0,11.0,77,0.00,,,0.00,0,WeatherHawk,2013-01-26 10:20:00,
2013-01-26 05:25:00,13.5,7.3,30.00,NW,309,4.0,11.0,76,0.00,,,0.00,0,WeatherHawk,2013-01-26 10:25:00,
2013-01-26 05:30:00,13.5,7.3,30.01,NW,324,6.0,13.0,76,0.00,,,0.00,0,WeatherHawk,2013-01-26 10:30:00,
2013-01-26 05:35:00,13.3,7.2,30.01,WNW,303,5.0,13.0,76,0.00,,,0.00,0,WeatherHawk,2013-01-26 10:35:00,
2013-01-26 05:40:00,13.3,7.2,30.01,NNW,331,7.0,11.0,76,0.00,,,0.00,0,WeatherHawk,2013-01-26 10:40:00,
2013-01-26 05:45:00,13.3,6.9,30.01,WNW,282,9.0,9.0,75,0.00,,,0.00,0,WeatherHawk,2013-01-26 10:45:00,
2013-01-26 05:50:00,13.1,6.7,30.01,NW,307,9.0,9.0,75,0.00,,,0.00,0,WeatherHawk,2013-01-26 10:50:00,
2013-01-26 05:55:00,13.1,6.4,30.01,NNW,344,7.0,11.0,74,0.00,,,0.00,0,WeatherHawk,2013-01-26 10:55:00,
2013-01-26 06:00:00,13.1,6.4,30.01,NW,311,4.0,11.0,74,0.00,,,0.00,0,WeatherHawk,2013-01-26 11:00:00,
2013-01-26 06:05:00,13.1,6.4,30.01,WNW,298,6.0,11.0,74,0.00,,,0.00,0,WeatherHawk,2013-01-26 11:05:00,
2013-01-26 06:10:00,12.9,6.2,30.01,WNW,293,4.0,-999.0,74,0.00,,,0.00,0,WeatherHawk,2013-01-26 11:10:00,
2013-01-26 06:15:00,12.9,5.9,30.01,NW,325,5.0,-999.0,73,0.00,,,0.00,0,WeatherHawk,2013-01-26 11:15:00,
2013-01-26 06:20:00,12.9,5.9,30.01,NW,307,7.0,10.0,73,0.00,,,0.00,0,WeatherHawk,2013-01-26 11:20:00,
2013-01-26 06:25:00,12.9,5.9,30.02,NNW,330,3.0,-999.0,73,0.00,,,0.00,0,WeatherHawk,2013-01-26 11:25:00,
2013-01-26 06:30:00,12.9,5.9,30.02,NNW,342,6.0,-999.0,73,0.00,,,0.00,0,WeatherHawk,2013-01-26 11:30:00,
2013-01-26 06:35:00,12.7,5.8,30.02,WNW,287,5.0,9.0,73,0.00,,,0.00,0,WeatherHawk,2013-01-26 11:35:00,
2013-01-26 06:40:00,12.7,5.8,30.02,NW,304,6.0,10.0,73,0.00,,,0.00,0,WeatherHawk,2013-01-26 11:40:00,
2013-01-26 06:45:00,12.7,5.8,30.02,WNW,301,3.0,-999.0,73,0.00,,,0.00,0,WeatherHawk,2013-01-26 11:45:00,
2013-01-26 06:50:00,12.6,5.6,30.02,NNW,333,8.0,11.0,73,0.00,,,0.00,0,WeatherHawk,2013-01-26 11:50:00,
2013-01-26 06:55:00,12.6,5.6,30.02,NW,319,9.0,11.0,73,0.00,,,0.00,2,WeatherHawk,2013-01-26 11:55:00,
2013-01-26 07:00:00,12.6,5.6,30.02,NW,316,9.0,12.0,73,0.00,,,0.00,3,WeatherHawk,2013-01-26 12:00:00,
2013-01-26 07:05:00,12.6,5.3,30.02,NW,323,9.0,-999.0,72,0.00,,,0.00,5,WeatherHawk,2013-01-26 12:05:00,
2013-01-26 07:10:00,12.6,5.3,30.02,NW,313,8.0,13.0,72,0.00,,,0.00,8,WeatherHawk,2013-01-26 12:10:00,
2013-01-26 07:15:00,12.6,5.3,30.02,NW,324,10.0,13.0,72,0.00,,,0.00,11,WeatherHawk,2013-01-26 12:15:00,
2013-01-26 07:20:00,12.6,5.0,30.03,NW,306,11.0,13.0,71,0.00,,,0.00,8,WeatherHawk,2013-01-26 12:20:00,
2013-01-26 07:25:00,12.6,5.0,30.02,WNW,294,12.0,15.0,71,0.00,,,0.00,16,WeatherHawk,2013-01-26 12:25:00,
2013-01-26 07:30:00,12.6,5.0,30.03,NW,313,11.0,17.0,71,0.00,,,0.00,18,WeatherHawk,2013-01-26 12:30:00,
2013-01-26 07:35:00,12.6,4.7,30.03,WNW,295,10.0,17.0,70,0.00,,,0.00,20,WeatherHawk,2013-01-26 12:35:00,
2013-01-26 07:40:00,12.6,4.7,30.03,WNW,299,8.0,14.0,70,0.00,,,0.00,26,WeatherHawk,2013-01-26 12:40:00,
2013-01-26 07:45:00,12.6,4.7,30.03,NW,326,6.0,14.0,70,0.00,,,0.00,26,WeatherHawk,2013-01-26 12:45:00,
2013-01-26 07:50:00,12.6,4.4,30.03,NW,315,9.0,14.0,69,0.00,,,0.00,27,WeatherHawk,2013-01-26 12:50:00,
2013-01-26 07:55:00,12.6,4.4,30.02,North,349,8.0,14.0,69,0.00,,,0.00,30,WeatherHawk,2013-01-26 12:55:00,
2013-01-26 08:00:00,12.7,3.9,30.02,NNW,335,12.0,-999.0,67,0.00,,,0.00,35,WeatherHawk,2013-01-26 13:00:00,
2013-01-26 08:05:00,12.9,3.7,30.02,NNW,335,9.0,16.0,66,0.00,,,0.00,89,WeatherHawk,2013-01-26 13:05:00,
2013-01-26 08:10:00,13.1,3.6,30.03,NW,305,12.0,22.0,65,0.00,,,0.00,125,WeatherHawk,2013-01-26 13:10:00,
2013-01-26 08:15:00,13.5,3.9,30.03,NW,326,9.0,22.0,65,0.00,,,0.00,146,WeatherHawk,2013-01-26 13:15:00,
2013-01-26 08:20:00,13.8,3.6,30.03,North,350,11.0,21.0,63,0.00,,,0.00,164,WeatherHawk,2013-01-26 13:20:00,
2013-01-26 08:25:00,13.8,3.2,30.03,NNW,334,10.0,21.0,62,0.00,,,0.00,178,WeatherHawk,2013-01-26 13:25:00,
2013-01-26 08:30:00,14.0,3.4,30.03,North,349,11.0,19.0,62,0.00,,,0.00,189,WeatherHawk,2013-01-26 13:30:00,
2013-01-26 08:35:00,14.0,3.4,30.03,NW,317,17.0,17.0,62,0.00,,,0.00,201,WeatherHawk,2013-01-26 13:35:00,
2013-01-26 08:40:00,14.5,3.9,30.03,NNW,335,9.0,17.0,62,0.00,,,0.00,151,WeatherHawk,2013-01-26 13:40:00,
2013-01-26 08:45:00,14.5,3.2,30.03,NNW,327,15.0,17.0,60,0.00,,,0.00,226,WeatherHawk,2013-01-26 13:45:00,
2013-01-26 08:50:00,14.5,2.9,30.03,NNW,331,11.0,16.0,59,0.00,,,0.00,238,WeatherHawk,2013-01-26 13:50:00,
2013-01-26 08:55:00,14.7,2.7,30.04,NW,323,12.0,-999.0,58,0.00,,,0.00,246,WeatherHawk,2013-01-26 13:55:00,
2013-01-26 09:00:00,14.9,2.5,30.04,NNW,334,9.0,-999.0,57,0.00,,,0.00,260,WeatherHawk,2013-01-26 14:00:00,
2013-01-26 09:05:00,15.1,2.2,30.04,NW,316,12.0,-999.0,56,0.00,,,0.00,273,WeatherHawk,2013-01-26 14:05:00,
2013-01-26 09:10:00,15.6,3.1,30.05,NW,320,9.0,20.0,57,0.00,,,0.00,283,WeatherHawk,2013-01-26 14:10:00,
2013-01-26 09:15:00,15.6,2.4,30.05,WNW,291,9.0,19.0,55,0.00,,,0.00,293,WeatherHawk,2013-01-26 14:15:00,
2013-01-26 09:20:00,15.8,2.1,30.05,WNW,293,14.0,19.0,54,0.00,,,0.00,310,WeatherHawk,2013-01-26 14:20:00,
2013-01-26 09:25:00,16.2,2.1,30.05,NW,314,14.0,17.0,53,0.00,,,0.00,322,WeatherHawk,2013-01-26 14:25:00,
2013-01-26 09:30:00,16.3,1.8,30.04,NW,306,9.0,19.0,52,0.00,,,0.00,334,WeatherHawk,2013-01-26 14:30:00,
2013-01-26 09:35:00,16.5,1.6,30.05,NNW,343,9.0,19.0,51,0.00,,,0.00,342,WeatherHawk,2013-01-26 14:35:00,
2013-01-26 09:40:00,16.7,1.8,30.05,NW,306,10.0,18.0,51,0.00,,,0.00,350,WeatherHawk,2013-01-26 14:40:00,
2013-01-26 09:45:00,16.9,1.5,30.05,NW,320,12.0,17.0,50,0.00,,,0.00,363,WeatherHawk,2013-01-26 14:45:00,
2013-01-26 09:50:00,17.1,1.2,30.06,NW,322,8.0,17.0,49,0.00,,,0.00,367,WeatherHawk,2013-01-26 14:50:00,
2013-01-26 09:55:00,17.4,1.6,30.06,NNW,335,9.0,-999.0,49,0.00,,,0.00,380,WeatherHawk,2013-01-26 14:55:00,
2013-01-26 10:00:00,18.0,2.5,30.06,WNW,293,5.0,13.0,50,0.00,,,0.00,386,WeatherHawk,2013-01-26 15:00:00,
2013-01-26 10:05:00,18.0,1.2,30.05,WNW,289,13.0,16.0,47,0.00,,,0.00,397,WeatherHawk,2013-01-26 15:05:00,
2013-01-26 10:10:00,18.1,1.3,30.05,NNW,345,7.0,16.0,47,0.00,,,0.00,408,WeatherHawk,2013-01-26 15:10:00,
2013-01-26 10:15:00,18.1,0.9,30.05,NNW,341,7.0,17.0,46,0.00,,,0.00,417,WeatherHawk,2013-01-26 15:15:00,
2013-01-26 10:20:00,18.5,1.2,30.05,North,354,4.0,17.0,46,0.00,,,0.00,422,WeatherHawk,2013-01-26 15:20:00,
2013-01-26 10:25:00,18.7,0.9,30.05,WNW,293,9.0,14.0,45,0.00,,,0.00,430,WeatherHawk,2013-01-26 15:25:00,
2013-01-26 10:30:00,18.9,1.1,30.05,NNW,337,9.0,17.0,45,0.00,,,0.00,438,WeatherHawk,2013-01-26 15:30:00,
2013-01-26 10:35:00,18.7,0.9,30.05,NW,322,6.0,19.0,45,0.00,,,0.00,446,WeatherHawk,2013-01-26 15:35:00,
2013-01-26 10:40:00,19.4,1.1,30.05,NW,316,11.0,19.0,44,0.00,,,0.00,450,WeatherHawk,2013-01-26 15:40:00,
2013-01-26 10:45:00,19.9,1.6,30.04,WNW,296,12.0,16.0,44,0.00,,,0.00,458,WeatherHawk,2013-01-26 15:45:00,
2013-01-26 10:50:00,19.4,1.1,30.04,WNW,299,14.0,18.0,44,0.00,,,0.00,464,WeatherHawk,2013-01-26 15:50:00,
2013-01-26 10:55:00,19.6,0.8,30.04,WNW,302,15.0,18.0,43,0.00,,,0.00,460,WeatherHawk,2013-01-26 15:55:00,
2013-01-26 11:00:00,19.9,1.6,30.04,NNW,337,7.0,16.0,44,0.00,,,0.00,476,WeatherHawk,2013-01-26 16:00:00,
2013-01-26 11:05:00,20.3,1.4,30.04,NNW,329,8.0,16.0,43,0.00,,,0.00,476,WeatherHawk,2013-01-26 16:05:00,
2013-01-26 11:10:00,20.3,0.9,30.04,WNW,298,13.0,16.0,42,0.00,,,0.00,479,WeatherHawk,2013-01-26 16:10:00,
2013-01-26 11:15:00,20.3,0.9,30.04,NW,318,6.0,15.0,42,0.00,,,0.00,484,WeatherHawk,2013-01-26 16:15:00,
2013-01-26 11:20:00,20.3,0.9,30.04,NW,310,11.0,16.0,42,0.00,,,0.00,487,WeatherHawk,2013-01-26 16:20:00,
2013-01-26 11:25:00,20.3,0.4,30.04,WNW,286,9.0,17.0,41,0.00,,,0.00,487,WeatherHawk,2013-01-26 16:25:00,
2013-01-26 11:30:00,21.2,1.2,30.04,NW,318,7.0,17.0,41,0.00,,,0.00,473,WeatherHawk,2013-01-26 16:30:00,
2013-01-26 11:35:00,21.4,0.9,30.04,WNW,282,7.0,15.0,40,0.00,,,0.00,512,WeatherHawk,2013-01-26 16:35:00,
2013-01-26 11:40:00,21.4,1.4,30.03,NW,321,7.0,15.0,41,0.00,,,0.00,399,WeatherHawk,2013-01-26 16:40:00,
2013-01-26 11:45:00,21.0,0.5,30.03,WNW,291,9.0,16.0,40,0.00,,,0.00,498,WeatherHawk,2013-01-26 16:45:00,
2013-01-26 11:50:00,21.2,0.2,30.03,NW,322,11.0,23.0,39,0.00,,,0.00,499,WeatherHawk,2013-01-26 16:50:00,
2013-01-26 11:55:00,21.2,0.7,30.03,NNW,328,9.0,23.0,40,0.00,,,0.00,497,WeatherHawk,2013-01-26 16:55:00,
2013-01-26 12:00:00,21.2,0.2,30.02,NW,306,12.0,20.0,39,0.00,,,0.00,497,WeatherHawk,2013-01-26 17:00:00,
2013-01-26 12:05:00,21.4,0.9,30.02,NW,318,11.0,20.0,40,0.00,,,0.00,498,WeatherHawk,2013-01-26 17:05:00,
2013-01-26 12:10:00,21.4,0.9,30.02,West,274,14.0,19.0,40,0.00,,,0.00,526,WeatherHawk,2013-01-26 17:10:00,
2013-01-26 12:15:00,21.4,0.9,30.02,WNW,294,13.0,19.0,40,0.00,,,0.00,504,WeatherHawk,2013-01-26 17:15:00,
2013-01-26 12:20:00,21.2,0.2,30.02,NW,305,10.0,19.0,39,0.00,,,0.00,494,WeatherHawk,2013-01-26 17:20:00,
2013-01-26 12:25:00,21.7,0.6,30.03,WNW,292,9.0,19.0,39,0.00,,,0.00,493,WeatherHawk,2013-01-26 17:25:00,
2013-01-26 12:30:00,22.3,1.1,30.02,WNW,283,10.0,14.0,39,0.00,,,0.00,489,WeatherHawk,2013-01-26 17:30:00,
2013-01-26 12:35:00,21.9,0.8,30.02,WNW,286,15.0,15.0,39,0.00,,,0.00,489,WeatherHawk,2013-01-26 17:35:00,
2013-01-26 12:40:00,22.1,0.4,30.02,WNW,294,14.0,20.0,38,0.00,,,0.00,484,WeatherHawk,2013-01-26 17:40:00,
2013-01-26 12:45:00,22.1,0.4,30.02,WNW,283,15.0,21.0,38,0.00,,,0.00,480,WeatherHawk,2013-01-26 17:45:00,
2013-01-26 12:50:00,21.9,0.2,30.02,NW,318,13.0,21.0,38,0.00,,,0.00,473,WeatherHawk,2013-01-26 17:50:00,
2013-01-26 12:55:00,22.1,0.4,30.02,WNW,292,14.0,20.0,38,0.00,,,0.00,73,WeatherHawk,2013-01-26 17:55:00,
2013-01-26 13:00:00,21.9,-0.3,30.01,West,273,11.0,19.0,37,0.00,,,0.00,67,WeatherHawk,2013-01-26 18:00:00,
2013-01-26 13:05:00,22.3,0.0,30.01,WNW,290,17.0,19.0,37,0.00,,,0.00,53,WeatherHawk,2013-01-26 18:05:00,
2013-01-26 13:10:00,22.3,-0.6,30.02,NNW,341,11.0,19.0,36,0.00,,,0.00,58,WeatherHawk,2013-01-26 18:10:00,
2013-01-26 13:15:00,22.1,-0.2,30.02,NNW,345,8.0,19.0,37,0.00,,,0.00,58,WeatherHawk,2013-01-26 18:15:00,
2013-01-26 13:20:00,22.3,0.0,30.02,WSW,251,4.0,17.0,37,0.00,,,0.00,61,WeatherHawk,2013-01-26 18:20:00,
2013-01-26 13:25:00,23.0,-0.5,30.02,WNW,290,9.0,16.0,35,0.00,,,0.00,67,WeatherHawk,2013-01-26 18:25:00,
2013-01-26 13:30:00,23.0,-0.5,30.01,WNW,291,17.0,19.0,35,0.00,,,0.00,66,WeatherHawk,2013-01-26 18:30:00,
2013-01-26 13:35:00,22.8,-0.7,30.02,NW,314,8.0,20.0,35,0.00,,,0.00,60,WeatherHawk,2013-01-26 18:35:00,
2013-01-26 13:40:00,23.0,-1.8,30.02,NW,322,14.0,21.0,33,0.00,,,0.00,62,WeatherHawk,2013-01-26 18:40:00,
2013-01-26 13:45:00,22.6,-1.5,30.02,WNW,289,10.0,21.0,34,0.00,,,0.00,66,WeatherHawk,2013-01-26 18:45:00,
2013-01-26 13:50:00,23.2,-1.6,30.02,NW,322,6.0,21.0,33,0.00,,,0.00,66,WeatherHawk,2013-01-26 18:50:00,
2013-01-26 13:55:00,23.4,-2.1,30.02,NW,316,19.0,20.0,32,0.00,,,0.00,66,WeatherHawk,2013-01-26 18:55:00,
2013-01-26 14:00:00,22.6,-2.7,30.02,NNW,340,8.0,20.0,32,0.00,,,0.00,68,WeatherHawk,2013-01-26 19:00:00,
2013-01-26 14:05:00,23.0,-3.8,30.02,NW,313,16.0,20.0,30,0.00,,,0.00,70,WeatherHawk,2013-01-26 19:05:00,
2013-01-26 14:10:00,23.0,-4.5,30.02,NW,317,10.0,19.0,29,0.00,,,0.00,75,WeatherHawk,2013-01-26 19:10:00,
2013-01-26 14:15:00,23.2,-4.3,30.02,NW,310,7.0,17.0,29,0.00,,,0.00,77,WeatherHawk,2013-01-26 19:15:00,
2013-01-26 14:20:00,23.7,-4.6,30.03,NW,313,8.0,17.0,28,0.00,,,0.00,81,WeatherHawk,2013-01-26 19:20:00,
2013-01-26 14:25:00,23.4,-4.9,30.02,WNW,291,16.0,26.0,28,0.00,,,0.00,85,WeatherHawk,2013-01-26 19:25:00,
2013-01-26 14:30:00,23.2,-5.0,30.02,WNW,299,15.0,26.0,28,0.00,,,0.00,86,WeatherHawk,2013-01-26 19:30:00,
2013-01-26 14:36:00,23.4,-5.6,30.03,NW,319,14.0,23.0,27,0.00,,,0.00,78,WeatherHawk,2013-01-26 19:36:00,
2013-01-26 14:41:00,23.0,-5.9,30.03,NW,321,13.0,20.0,27,0.00,,,0.00,85,WeatherHawk,2013-01-26 19:41:00,
2013-01-26 14:46:00,23.4,-5.6,30.03,NW,311,11.0,17.0,27,0.00,,,0.00,86,WeatherHawk,2013-01-26 19:46:00,
2013-01-26 14:51:00,23.5,-6.3,30.03,WNW,303,13.0,17.0,26,0.00,,,0.00,79,WeatherHawk,2013-01-26 19:51:00,
2013-01-26 14:56:00,23.2,-7.4,30.03,WNW,288,15.0,23.0,25,0.00,,,0.00,163,WeatherHawk,2013-01-26 19:56:00,
2013-01-26 15:01:00,23.4,-8.0,30.03,WNW,295,10.0,23.0,24,0.00,,,0.00,238,WeatherHawk,2013-01-26 20:01:00,
2013-01-26 15:06:00,23.4,-7.2,30.03,NW,313,19.0,19.0,25,0.00,,,0.00,205,WeatherHawk,2013-01-26 20:06:00,
2013-01-26 15:11:00,23.2,-8.2,30.04,NW,323,12.0,21.0,24,0.00,,,0.00,239,WeatherHawk,2013-01-26 20:11:00,
2013-01-26 15:16:00,23.0,-7.5,30.04,NW,304,13.0,21.0,25,0.00,,,0.00,224,WeatherHawk,2013-01-26 20:16:00,
2013-01-26 15:21:00,23.2,-7.4,30.04,NW,311,15.0,20.0,25,0.00,,,0.00,208,WeatherHawk,2013-01-26 20:21:00,
2013-01-26 15:26:00,23.0,-7.5,30.05,NW,307,14.0,22.0,25,0.00,,,0.00,197,WeatherHawk,2013-01-26 20:26:00,
2013-01-26 15:31:00,23.0,-7.5,30.05,NW,323,9.0,22.0,25,0.00,,,0.00,180,WeatherHawk,2013-01-26 20:31:00,
2013-01-26 15:36:00,22.8,-7.7,30.05,WNW,294,13.0,27.0,25,0.00,,,0.00,170,WeatherHawk,2013-01-26 20:36:00,
2013-01-26 15:41:00,23.2,-8.2,30.05,WNW,302,10.0,27.0,24,0.00,,,0.00,161,WeatherHawk,2013-01-26 20:41:00,
2013-01-26 15:46:00,22.8,-7.7,30.05,NW,317,13.0,25.0,25,0.00,,,0.00,148,WeatherHawk,2013-01-26 20:46:00,
2013-01-26 15:51:00,22.8,-6.9,30.06,NW,306,11.0,25.0,26,0.00,,,0.00,135,WeatherHawk,2013-01-26 20:51:00,
2013-01-26 15:56:00,22.8,-5.3,30.05,WNW,293,23.0,28.0,28,0.00,,,0.00,123,WeatherHawk,2013-01-26 20:56:00,
2013-01-26 16:01:00,22.5,-6.4,30.06,NW,306,19.0,28.0,27,0.00,,,0.00,111,WeatherHawk,2013-01-26 21:01:00,
2013-01-26 16:06:00,22.5,-6.4,30.06,NNW,338,14.0,33.0,27,0.00,,,0.00,98,WeatherHawk,2013-01-26 21:06:00,
2013-01-26 16:11:00,22.3,-6.6,30.06,WNW,290,14.0,33.0,27,0.00,,,0.00,85,WeatherHawk,2013-01-26 21:11:00,
2013-01-26 16:16:00,22.3,-6.6,30.07,NW,316,6.0,25.0,27,0.00,,,0.00,72,WeatherHawk,2013-01-26 21:16:00,
2013-01-26 16:21:00,22.1,-6.7,30.07,NW,322,6.0,21.0,27,0.00,,,0.00,64,WeatherHawk,2013-01-26 21:21:00,
2013-01-26 16:26:00,21.9,-6.9,30.07,WNW,284,13.0,21.0,27,0.00,,,0.00,53,WeatherHawk,2013-01-26 21:26:00,
2013-01-26 16:31:00,21.9,-6.9,30.07,NW,324,7.0,17.0,27,0.00,,,0.00,43,WeatherHawk,2013-01-26 21:31:00,
2013-01-26 16:36:00,21.6,-7.2,30.07,WNW,298,20.0,21.0,27,0.00,,,0.00,23,WeatherHawk,2013-01-26 21:36:00,
2013-01-26 16:41:00,21.4,-6.6,30.07,NW,310,28.0,30.0,28,0.00,,,0.00,12,WeatherHawk,2013-01-26 21:41:00,
2013-01-26 16:46:00,21.2,-7.5,30.08,NW,308,10.0,30.0,27,0.00,,,0.00,7,WeatherHawk,2013-01-26 21:46:00,
2013-01-26 16:51:00,21.0,-7.7,30.08,WNW,300,13.0,28.0,27,0.00,,,0.00,4,WeatherHawk,2013-01-26 21:51:00,
2013-01-26 16:56:00,21.0,-8.4,30.08,NW,323,9.0,26.0,26,0.00,,,0.00,2,WeatherHawk,2013-01-26 21:56:00,
2013-01-26 17:01:00,21.0,-8.4,30.09,WNW,303,9.0,19.0,26,0.00,,,0.00,2,WeatherHawk,2013-01-26 22:01:00,
2013-01-26 17:06:00,21.0,-8.4,30.09,NW,312,10.0,25.0,26,0.00,,,0.00,0,WeatherHawk,2013-01-26 22:06:00,
2013-01-26 17:11:00,21.0,-8.4,30.10,NW,311,10.0,25.0,26,0.00,,,0.00,0,WeatherHawk,2013-01-26 22:11:00,
2013-01-26 17:16:00,21.0,-8.4,30.10,NW,325,8.0,19.0,26,0.00,,,0.00,0,WeatherHawk,2013-01-26 22:16:00,
2013-01-26 17:21:00,21.0,-8.4,30.10,WNW,298,9.0,15.0,26,0.00,,,0.00,0,WeatherHawk,2013-01-26 22:21:00,
2013-01-26 17:26:00,21.0,-9.2,30.09,NW,310,13.0,19.0,25,0.00,,,0.00,1,WeatherHawk,2013-01-26 22:26:00,
2013-01-26 17:31:00,20.8,-9.4,30.10,NNW,331,12.0,27.0,25,0.00,,,0.00,0,WeatherHawk,2013-01-26 22:31:00,
2013-01-26 17:36:00,20.8,-8.6,30.09,NW,316,15.0,27.0,26,0.00,,,0.00,0,WeatherHawk,2013-01-26 22:36:00,
2013-01-26 17:41:00,20.7,-8.7,30.09,NW,308,13.0,24.0,26,0.00,,,0.00,0,WeatherHawk,2013-01-26 22:41:00,
2013-01-26 17:46:00,20.7,-8.7,30.10,WNW,302,9.0,24.0,26,0.00,,,0.00,0,WeatherHawk,2013-01-26 22:46:00,
2013-01-26 17:51:00,20.7,-9.5,30.10,NW,309,9.0,23.0,25,0.00,,,0.00,0,WeatherHawk,2013-01-26 22:51:00,
2013-01-26 17:56:00,20.7,-9.5,30.11,WNW,302,17.0,23.0,25,0.00,,,0.00,0,WeatherHawk,2013-01-26 22:56:00,
2013-01-26 18:01:00,20.7,-9.5,30.10,NW,314,19.0,23.0,25,0.00,,,0.00,0,WeatherHawk,2013-01-26 23:01:00,
2013-01-26 18:06:00,20.5,-8.9,30.11,WNW,302,17.0,22.0,26,0.00,,,0.00,0,WeatherHawk,2013-01-26 23:06:00,
2013-01-26 18:11:00,20.5,-9.7,30.12,NW,305,9.0,22.0,25,0.00,,,0.00,0,WeatherHawk,2013-01-26 23:11:00,
2013-01-26 18:16:00,20.3,-9.0,30.12,NNW,328,16.0,22.0,26,0.00,,,0.00,0,WeatherHawk,2013-01-26 23:16:00,
2013-01-26 18:21:00,20.1,-9.2,30.12,WNW,303,12.0,22.0,26,0.00,,,0.00,0,WeatherHawk,2013-01-26 23:21:00,
2013-01-26 18:26:00,20.1,-9.2,30.12,WNW,301,11.0,22.0,26,0.00,,,0.00,0,WeatherHawk,2013-01-26 23:26:00,
2013-01-26 18:31:00,19.9,-9.4,30.11,NW,323,13.0,25.0,26,0.00,,,0.00,0,WeatherHawk,2013-01-26 23:31:00,
2013-01-26 18:36:00,19.9,-9.4,30.12,NW,307,15.0,25.0,26,0.00,,,0.00,0,WeatherHawk,2013-01-26 23:36:00,
2013-01-26 18:41:00,19.9,-9.4,30.12,WNW,300,13.0,19.0,26,0.00,,,0.00,0,WeatherHawk,2013-01-26 23:41:00,
2013-01-26 18:46:00,19.8,-9.5,30.12,NW,325,13.0,23.0,26,0.00,,,0.00,0,WeatherHawk,2013-01-26 23:46:00,
2013-01-26 18:51:00,19.6,-10.5,30.12,NNW,331,14.0,31.0,25,0.00,,,0.00,0,WeatherHawk,2013-01-26 23:51:00,
2013-01-26 18:56:00,19.4,-9.8,30.12,NW,315,16.0,31.0,26,0.00,,,0.00,0,WeatherHawk,2013-01-26 23:56:00,
2013-01-26 19:01:00,19.4,-9.8,30.12,NW,313,22.0,26.0,26,0.00,,,0.00,0,WeatherHawk,2013-01-27 00:01:00,
2013-01-26 19:06:00,19.2,-10.8,30.13,NNW,331,9.0,27.0,25,0.00,,,0.00,0,WeatherHawk,2013-01-27 00:06:00,
2013-01-26 19:11:00,19.0,-10.9,30.13,NW,313,13.0,31.0,25,0.00,,,0.00,0,WeatherHawk,2013-01-27 00:11:00,
2013-01-26 19:16:00,18.9,-11.1,30.13,NW,311,13.0,32.0,25,0.00,,,0.00,0,WeatherHawk,2013-01-27 00:16:00,
2013-01-26 19:21:00,18.9,-11.1,30.14,WNW,297,10.0,32.0,25,0.00,,,0.00,0,WeatherHawk,2013-01-27 00:21:00,
2013-01-26 19:26:00,18.5,-11.4,30.14,WNW,290,13.0,26.0,25,0.00,,,0.00,0,WeatherHawk,2013-01-27 00:26:00,
2013-01-26 19:31:00,18.5,-11.4,30.13,WNW,298,15.0,30.0,25,0.00,,,0.00,0,WeatherHawk,2013-01-27 00:31:00,
2013-01-26 19:36:00,18.3,-11.5,30.14,NW,312,16.0,30.0,25,0.00,,,0.00,0,WeatherHawk,2013-01-27 00:36:00,
2013-01-26 19:41:00,18.3,-11.5,30.14,WNW,289,19.0,29.0,25,0.00,,,0.00,0,WeatherHawk,2013-01-27 00:41:00,
2013-01-26 19:46:00,18.3,-11.5,30.14,NW,315,15.0,30.0,25,0.00,,,0.00,0,WeatherHawk,2013-01-27 00:46:00,
2013-01-26 19:51:00,18.1,-10.9,30.15,NNW,336,13.0,30.0,26,0.00,,,0.00,0,WeatherHawk,2013-01-27 00:51:00,
2013-01-26 19:56:00,18.1,-10.9,30.15,WNW,295,13.0,30.0,26,0.00,,,0.00,0,WeatherHawk,2013-01-27 00:56:00,
2013-01-26 20:01:00,18.0,-10.3,30.15,NW,311,12.0,20.0,27,0.00,,,0.00,0,WeatherHawk,2013-01-27 01:01:00,
2013-01-26 20:06:00,17.8,-9.7,30.14,NW,304,26.0,31.0,28,0.00,,,0.00,0,WeatherHawk,2013-01-27 01:06:00,
2013-01-26 20:11:00,17.6,-9.2,30.15,NW,318,17.0,31.0,29,0.00,,,0.00,0,WeatherHawk,2013-01-27 01:11:00,
2013-01-26 20:16:00,17.4,-8.7,30.15,NW,317,22.0,28.0,30,0.00,,,0.00,0,WeatherHawk,2013-01-27 01:16:00,
2013-01-26 20:21:00,17.2,-8.1,30.15,NW,326,11.0,26.0,31,0.00,,,0.00,0,WeatherHawk,2013-01-27 01:21:00,
2013-01-26 20:26:00,17.2,-8.1,30.16,NNW,327,13.0,26.0,31,0.00,,,0.00,0,WeatherHawk,2013-01-27 01:26:00,
2013-01-26 20:32:00,16.9,-7.2,30.16,NW,308,12.0,26.0,33,0.00,,,0.00,0,WeatherHawk,2013-01-27 01:32:00,
2013-01-26 20:37:00,16.9,-6.6,30.16,NW,324,16.0,23.0,34,0.00,,,0.00,0,WeatherHawk,2013-01-27 01:37:00,
2013-01-26 20:42:00,16.7,-6.7,30.16,NW,306,10.0,27.0,34,0.00,,,0.00,0,WeatherHawk,2013-01-27 01:42:00,
2013-01-26 20:47:00,16.7,-6.1,30.16,NNW,327,15.0,27.0,35,0.00,,,0.00,0,WeatherHawk,2013-01-27 01:47:00,
2013-01-26 20:52:00,16.5,-6.3,30.16,NW,304,17.0,25.0,35,0.00,,,0.00,0,WeatherHawk,2013-01-27 01:52:00,
2013-01-26 20:58:00,16.5,-5.7,30.16,NW,316,15.0,26.0,36,0.00,,,0.00,0,WeatherHawk,2013-01-27 01:58:00,
2013-01-26 21:03:00,16.3,-5.3,30.17,NNW,328,17.0,24.0,37,0.00,,,0.00,0,WeatherHawk,2013-01-27 02:03:00,
2013-01-26 21:08:00,16.3,-5.3,30.17,WNW,295,14.0,20.0,37,0.00,,,0.00,0,WeatherHawk,2013-01-27 02:08:00,
2013-01-26 21:13:00,16.2,-5.5,30.17,NW,308,23.0,23.0,37,0.00,,,0.00,0,WeatherHawk,2013-01-27 02:13:00,
2013-01-26 21:18:00,16.2,-5.5,30.16,NW,315,9.0,28.0,37,0.00,,,0.00,0,WeatherHawk,2013-01-27 02:18:00,
2013-01-26 21:23:00,16.2,-4.9,30.17,NNW,334,7.0,29.0,38,0.00,,,0.00,0,WeatherHawk,2013-01-27 02:23:00,
2013-01-26 21:28:00,16.2,-4.9,30.17,WNW,299,13.0,29.0,38,0.00,,,0.00,0,WeatherHawk,2013-01-27 02:28:00,
2013-01-26 21:33:00,16.0,-5.1,30.17,WNW,294,9.0,19.0,38,0.00,,,0.00,0,WeatherHawk,2013-01-27 02:33:00,
2013-01-26 21:38:00,16.0,-5.1,30.17,WNW,303,19.0,20.0,38,0.00,,,0.00,0,WeatherHawk,2013-01-27 02:38:00,
2013-01-26 21:43:00,15.8,-5.3,30.17,NNW,335,14.0,22.0,38,0.00,,,0.00,0,WeatherHawk,2013-01-27 02:43:00,
2013-01-26 21:48:00,15.8,-5.3,30.17,WNW,301,30.0,33.0,38,0.00,,,0.00,0,WeatherHawk,2013-01-27 02:48:00,
2013-01-26 21:53:00,16.0,-4.6,30.18,WNW,296,13.0,33.0,39,0.00,,,0.00,0,WeatherHawk,2013-01-27 02:53:00,
2013-01-26 21:58:00,15.8,-4.7,30.18,NW,317,15.0,30.0,39,0.00,,,0.00,0,WeatherHawk,2013-01-27 02:58:00,
2013-01-26 22:03:00,15.8,-4.7,30.18,NW,309,14.0,21.0,39,0.00,,,0.00,0,WeatherHawk,2013-01-27 03:03:00,
2013-01-26 22:08:00,15.6,-4.4,30.18,NW,308,11.0,21.0,40,0.00,,,0.00,0,WeatherHawk,2013-01-27 03:08:00,
2013-01-26 22:13:00,15.6,-4.4,30.19,NW,326,9.0,19.0,40,0.00,,,0.00,0,WeatherHawk,2013-01-27 03:13:00,
2013-01-26 22:18:00,15.6,-4.4,30.19,NW,310,9.0,19.0,40,0.00,,,0.00,0,WeatherHawk,2013-01-27 03:18:00,
2013-01-26 22:23:00,15.6,-4.4,30.19,WNW,292,10.0,22.0,40,0.00,,,0.00,0,WeatherHawk,2013-01-27 03:23:00,
2013-01-26 22:28:00,15.6,-4.4,30.19,NW,312,19.0,26.0,40,0.00,,,0.00,0,WeatherHawk,2013-01-27 03:28:00,
2013-01-26 22:33:00,15.6,-3.8,30.19,NW,322,17.0,28.0,41,0.00,,,0.00,1,WeatherHawk,2013-01-27 03:33:00,
2013-01-26 22:38:00,15.6,-3.8,30.19,NW,323,15.0,28.0,41,0.00,,,0.00,0,WeatherHawk,2013-01-27 03:38:00,
2013-01-26 22:43:00,15.6,-3.8,30.19,NW,322,13.0,24.0,41,0.00,,,0.00,0,WeatherHawk,2013-01-27 03:43:00,
2013-01-26 22:48:00,15.6,-3.8,30.19,NW,307,14.0,24.0,41,0.00,,,0.00,0,WeatherHawk,2013-01-27 03:48:00,
2013-01-26 22:53:00,15.4,-4.0,30.20,NNW,343,13.0,23.0,41,0.00,,,0.00,0,WeatherHawk,2013-01-27 03:53:00,
2013-01-26 22:58:00,15.6,-3.3,30.20,WNW,294,11.0,30.0,42,0.00,,,0.00,0,WeatherHawk,2013-01-27 03:58:00,
2013-01-26 23:03:00,15.6,-3.3,30.20,WNW,300,18.0,30.0,42,0.00,,,0.00,0,WeatherHawk,2013-01-27 04:03:00,
2013-01-26 23:08:00,15.6,-3.3,30.20,NW,314,11.0,26.0,42,0.00,,,0.00,0,WeatherHawk,2013-01-27 04:08:00,
2013-01-26 23:13:00,15.4,-3.5,30.20,NW,319,12.0,26.0,42,0.00,,,0.00,0,WeatherHawk,2013-01-27 04:13:00,
2013-01-26 23:18:00,15.4,-3.5,30.20,NW,325,16.0,19.0,42,0.00,,,0.00,0,WeatherHawk,2013-01-27 04:18:00,
2013-01-26 23:23:00,15.4,-3.0,30.21,NW,304,9.0,19.0,43,0.00,,,0.00,0,WeatherHawk,2013-01-27 04:23:00,
2013-01-26 23:28:00,15.4,-3.5,30.20,WNW,293,13.0,20.0,42,0.00,,,0.00,0,WeatherHawk,2013-01-27 04:28:00,
2013-01-26 23:33:00,15.3,-3.2,30.21,NW,317,7.0,20.0,43,0.00,,,0.00,0,WeatherHawk,2013-01-27 04:33:00,
2013-01-26 23:38:00,15.3,-3.2,30.21,NW,326,10.0,15.0,43,0.00,,,0.00,0,WeatherHawk,2013-01-27 04:38:00,
2013-01-26 23:43:00,15.3,-3.2,30.21,West,277,6.0,15.0,43,0.00,,,0.00,0,WeatherHawk,2013-01-27 04:43:00,
2013-01-26 23:48:00,15.1,-2.9,30.21,NW,322,9.0,20.0,44,0.00,,,0.00,0,WeatherHawk,2013-01-27 04:48:00,
2013-01-26 23:53:00,15.3,-2.7,30.20,NW,304,13.0,20.0,44,0.00,,,0.00,0,WeatherHawk,2013-01-27 04:53:00,
2013-01-26 23:58:00,15.3,-2.7,30.21,NNW,329,13.0,24.0,44,0.00,,,0.00,0,WeatherHawk,2013-01-27 04:58:00,